Flag for U.S.A. Weather past 2 weeks in Yonkers, New York, U.S.A.

Now
82 °F

Sunny.


Feels Like: 84 °F
Forecast: 72 / 87 °F
Wind: 6 mph from South

Location: Teterboro Airport

Current Time: Jul 22, 2014 at 10:08:25 PM

Latest Report: Jul 22, 2014 at 8:51 PM


Visibility: 10 mi

Pressure: 30.04 "Hg

Humidity: 60%

Dew point: 67 °F

Location of YonkersLocation

Historic Weather in Yonkers — Graph

°F

Yonkers temperature yesterday

Maximum temperature yesterday: 87 °F (at 4:51 PM)
Minimum temperature yesterday: 66 °F (at 3:51 AM)
Average temperature yesterday: 76 °F

Past Weeks' High & Low Weather Summary

 TemperatureHumidityPressure
High95 °F (Jul 8, 2:51 PM)89% (Jul 14, 4:00 AM)30.24 "Hg (Jul 14, 4:00 AM)
Low64 °F (Jul 18, 5:51 AM)28% (Jul 18, 3:51 PM)29.65 "Hg (Jul 8, 6:51 PM)
Average78 °F60%30.01 "Hg
* Reported Jul 7 8:51 PM — Jul 22 8:51 PM, Yonkers, Weather by CustomWeather, © 2014

Note: Actual official high and low records may vary slightly from our data, if they occured in-between our weather recording intervals... More about our weather records

Advertising

Yonkers weather history for previous 24 hours

 ConditionsComfort  
Time TempWeatherWind HumidityBarometerVisibility
8:51 PM
Jul 22
82 °FSunny.6 mph60%30.04 "Hg10 mi
7:51 PM84 °FSunny.7 mph57%30.04 "Hg10 mi
12:51 PM87 °FScattered clouds.10 mph48%30.11 "Hg10 mi
11:51 AM86 °FScattered clouds.10 mph51%30.12 "Hg10 mi
10:51 AM85 °FSunny.5 mph53%30.13 "Hg10 mi
9:51 AM81 °FSunny.6 mph60%30.15 "Hg10 mi
8:51 AM78 °FSunny.6 mph62%30.16 "Hg10 mi
7:51 AM75 °FSunny.No wind66%30.17 "Hg10 mi
6:51 AM71 °FSunny.3 mph73%30.16 "Hg10 mi
5:51 AM70 °FClear.No wind73%30.16 "Hg10 mi
4:51 AM70 °FClear.No wind73%30.15 "Hg10 mi
3:51 AM69 °FClear.No wind76%30.15 "Hg10 mi
2:51 AM73 °FClear.No wind66%30.15 "Hg10 mi
1:51 AM74 °FClear.No wind67%30.15 "Hg10 mi
12:51 AM73 °FClear.5 mph71%30.15 "Hg10 mi
11:51 PM
Jul 21
75 °FClear.No wind66%30.15 "Hg10 mi
10:51 PM76 °FClear.6 mph62%30.16 "Hg10 mi
Weather by CustomWeather, © 2014

See weather overviewHow to use our weather pages